SWR285 ESSA-LSZH

Flight info

Callsign SWR285
Flight time 2h 6m
Altitude 40000
Route NOSLI N850 ABAMA DCT MAKEL DCT OTMON DCT SWALM DCT OMOGI/N0456F390 T721 LAMGO/N0381F270 T721 RILAX
Aircraft A333/H-SDE3GHIJ2J3J5M1RVWXY/LB2D1

Departure

Time 2026-05-06 18:05
Airport Stockholm-Arlanda Airport (ESSA)

Arrival

Time 2026-05-06 20:12
Airport Zürich Airport (LSZH)
Time Latitude Longitude Altitude Speed Heading
2026-05-06 17:32 59.65394 17.93494 113 ft 0 kts 76°
2026-05-06 17:32 59.65475 17.93494 113 ft 0 kts 76°
2026-05-06 17:54 59.65473 17.93475 111 ft 3 kts 76°
2026-05-06 17:54 59.65468 17.93435 111 ft 3 kts 73°
2026-05-06 17:55 59.65460 17.93398 112 ft 3 kts 54°
2026-05-06 17:55 59.65447 17.93369 111 ft 3 kts 26°
2026-05-06 17:55 59.65428 17.93360 111 ft 3 kts 352°
2026-05-06 17:55 59.65421 17.93362 111 ft 0 kts 345°
2026-05-06 17:58 59.65423 17.93361 111 ft 1 kts 345°
2026-05-06 17:59 59.65438 17.93353 111 ft 3 kts 345°
2026-05-06 17:59 59.65475 17.93348 99 ft 7 kts 358°
2026-05-06 17:59 59.65515 17.93305 113 ft 7 kts 303°
2026-05-06 17:59 59.65518 17.93200 115 ft 9 kts 259°
2026-05-06 18:00 59.65504 17.93071 111 ft 10 kts 254°
2026-05-06 18:00 59.65480 17.92925 112 ft 12 kts 251°
2026-05-06 18:00 59.65447 17.92772 112 ft 10 kts 243°
2026-05-06 18:00 59.65445 17.92636 112 ft 12 kts 304°
2026-05-06 18:01 59.65524 17.92536 109 ft 12 kts 339°
2026-05-06 18:01 59.65615 17.92482 107 ft 15 kts 346°
2026-05-06 18:01 59.65720 17.92430 108 ft 15 kts 346°
2026-05-06 18:01 59.65820 17.92441 107 ft 14 kts
2026-05-06 18:02 59.65916 17.92472 110 ft 14 kts 10°
2026-05-06 18:02 59.66018 17.92507 111 ft 15 kts 11°
2026-05-06 18:02 59.66121 17.92549 112 ft 15 kts 11°
2026-05-06 18:02 59.66227 17.92588 117 ft 15 kts 10°
2026-05-06 18:03 59.66329 17.92625 119 ft 14 kts 11°
2026-05-06 18:03 59.66426 17.92653 121 ft 14 kts
2026-05-06 18:03 59.66519 17.92615 123 ft 14 kts 343°
2026-05-06 18:03 59.66603 17.92540 125 ft 11 kts 314°
2026-05-06 18:04 59.66617 17.92409 128 ft 8 kts 257°
2026-05-06 18:04 59.66585 17.92361 125 ft 6 kts 196°
2026-05-06 18:04 59.66577 17.92357 125 ft 0 kts 191°
2026-05-06 18:04 59.66576 17.92357 125 ft 2 kts 191°
2026-05-06 18:05 59.66406 17.92293 122 ft 58 kts 190°
2026-05-06 18:05 59.65789 17.92070 114 ft 121 kts 191°
2026-05-06 18:05 59.64788 17.91693 308 ft 161 kts 189°
2026-05-06 18:05 59.63649 17.91166 1013 ft 175 kts 192°
2026-05-06 18:06 59.62437 17.90558 1888 ft 184 kts 195°
2026-05-06 18:06 59.61292 17.89380 2768 ft 191 kts 218°
2026-05-06 18:06 59.60438 17.87314 3581 ft 202 kts 236°
2026-05-06 18:06 59.59714 17.84873 4498 ft 208 kts 239°
2026-05-06 18:07 59.58976 17.82387 5444 ft 212 kts 240°
2026-05-06 18:07 59.58220 17.79852 6313 ft 220 kts 242°
2026-05-06 18:07 59.57438 17.77160 7031 ft 232 kts 242°
2026-05-06 18:07 59.56447 17.74539 7754 ft 246 kts 226°
2026-05-06 18:08 59.55019 17.72529 8541 ft 257 kts 212°
2026-05-06 18:08 59.53425 17.70844 9424 ft 264 kts 210°
2026-05-06 18:08 59.51763 17.69146 10149 ft 274 kts 210°
2026-05-06 18:08 59.50006 17.67360 10559 ft 295 kts 210°
2026-05-06 18:09 59.48138 17.65487 10942 ft 314 kts 210°
2026-05-06 18:09 59.46147 17.63515 11591 ft 324 kts 209°
2026-05-06 18:09 59.44120 17.61522 12399 ft 328 kts 209°
2026-05-06 18:09 59.42069 17.59511 13263 ft 330 kts 209°
2026-05-06 18:10 59.40001 17.57487 14112 ft 333 kts 209°
2026-05-06 18:10 59.37922 17.55454 14863 ft 336 kts 209°
2026-05-06 18:10 59.35821 17.53402 15638 ft 339 kts 209°
2026-05-06 18:10 59.33701 17.51335 16406 ft 341 kts 210°
2026-05-06 18:11 59.31567 17.49257 17168 ft 344 kts 210°
2026-05-06 18:11 59.29417 17.47166 17927 ft 346 kts 210°
2026-05-06 18:11 59.27244 17.45055 18573 ft 350 kts 210°
2026-05-06 18:11 59.25079 17.42955 19205 ft 352 kts 210°
2026-05-06 18:12 59.22878 17.40824 19882 ft 354 kts 210°
2026-05-06 18:12 59.20665 17.38685 20548 ft 355 kts 210°
2026-05-06 18:12 59.18443 17.36540 21203 ft 357 kts 211°
2026-05-06 18:12 59.16205 17.34382 21836 ft 359 kts 211°
2026-05-06 18:13 59.13965 17.32225 22472 ft 361 kts 211°
2026-05-06 18:13 59.11705 17.30053 23081 ft 363 kts 211°
2026-05-06 18:13 59.09430 17.27864 23668 ft 365 kts 212°
2026-05-06 18:13 59.07247 17.25466 24150 ft 363 kts 218°
2026-05-06 18:14 59.05204 17.22594 24693 ft 362 kts 221°
2026-05-06 18:14 59.03237 17.19545 25194 ft 362 kts 223°
2026-05-06 18:14 59.01299 17.16396 25619 ft 365 kts 223°
2026-05-06 18:14 58.99357 17.13190 26044 ft 367 kts 223°
2026-05-06 18:15 58.97408 17.09975 26529 ft 368 kts 223°
2026-05-06 18:15 58.95448 17.06768 27027 ft 369 kts 222°
2026-05-06 18:15 58.93473 17.03566 27514 ft 371 kts 222°
2026-05-06 18:15 58.91483 17.00362 27980 ft 372 kts 222°
2026-05-06 18:16 58.89506 16.97196 28415 ft 374 kts 221°
2026-05-06 18:16 58.87496 16.93987 28890 ft 375 kts 221°
2026-05-06 18:16 58.85473 16.90765 29351 ft 377 kts 221°
2026-05-06 18:16 58.83440 16.87534 29787 ft 379 kts 221°
2026-05-06 18:17 58.81396 16.84288 30203 ft 380 kts 221°
2026-05-06 18:17 58.79339 16.81025 30519 ft 383 kts 221°
2026-05-06 18:17 58.77268 16.77744 30701 ft 389 kts 220°
2026-05-06 18:17 58.75164 16.74416 30972 ft 393 kts 220°
2026-05-06 18:18 58.73071 16.71110 31323 ft 394 kts 220°
2026-05-06 18:18 58.70937 16.67747 31675 ft 396 kts 220°
2026-05-06 18:18 58.68794 16.64374 31996 ft 399 kts 220°
2026-05-06 18:18 58.66641 16.60991 32369 ft 400 kts 220°
2026-05-06 18:19 58.64486 16.57612 32828 ft 399 kts 220°
2026-05-06 18:19 58.62338 16.54250 33313 ft 397 kts 220°
2026-05-06 18:19 58.60198 16.50904 33768 ft 397 kts 220°
2026-05-06 18:19 58.58058 16.47565 34237 ft 394 kts 220°
2026-05-06 18:20 58.55937 16.44262 34654 ft 392 kts 220°
2026-05-06 18:20 58.53838 16.40996 34823 ft 396 kts 220°
2026-05-06 18:20 58.51683 16.37646 34947 ft 401 kts 220°
2026-05-06 18:20 58.49513 16.34277 35217 ft 402 kts 220°
2026-05-06 18:21 58.47340 16.30911 35495 ft 403 kts 220°
2026-05-06 18:21 58.45159 16.27540 35735 ft 404 kts 220°
2026-05-06 18:21 58.42962 16.24150 35984 ft 406 kts 221°
2026-05-06 18:21 58.40762 16.20761 36216 ft 407 kts 221°
2026-05-06 18:22 58.38551 16.17359 36454 ft 409 kts 221°
2026-05-06 18:22 58.36329 16.13948 36686 ft 410 kts 221°
2026-05-06 18:22 58.34130 16.10577 36920 ft 412 kts 221°
2026-05-06 18:22 58.31895 16.07157 37133 ft 413 kts 221°
2026-05-06 18:23 58.29651 16.03728 37340 ft 415 kts 220°
2026-05-06 18:23 58.27390 16.00281 37519 ft 417 kts 220°
2026-05-06 18:23 58.25125 15.96831 37766 ft 418 kts 220°
2026-05-06 18:23 58.22851 15.93374 38023 ft 419 kts 220°
2026-05-06 18:24 58.20565 15.89905 38235 ft 420 kts 220°
2026-05-06 18:24 58.18279 15.86443 38491 ft 420 kts 220°
2026-05-06 18:24 58.15994 15.82986 38687 ft 421 kts 220°
2026-05-06 18:24 58.13693 15.79513 38865 ft 422 kts 220°
2026-05-06 18:25 58.11424 15.76092 39067 ft 422 kts 220°
2026-05-06 18:25 58.09124 15.72631 39243 ft 423 kts 220°
2026-05-06 18:25 58.06817 15.69167 39442 ft 423 kts 220°
2026-05-06 18:25 58.04507 15.65702 39565 ft 424 kts 220°
2026-05-06 18:26 58.02192 15.62236 39746 ft 425 kts 220°
2026-05-06 18:26 57.99873 15.58784 39901 ft 425 kts 219°
2026-05-06 18:26 57.94929 15.52493 39979 ft 430 kts 215°
2026-05-06 18:27 57.89897 15.46503 39980 ft 431 kts 214°
2026-05-06 18:27 57.84806 15.40536 39965 ft 431 kts 214°
2026-05-06 18:28 57.79719 15.34576 39968 ft 430 kts 214°
2026-05-06 18:28 57.74669 15.28659 39971 ft 430 kts 214°
2026-05-06 18:29 57.69578 15.22709 39969 ft 431 kts 214°
2026-05-06 18:29 57.64492 15.16783 39972 ft 431 kts 214°
2026-05-06 18:30 57.59399 15.10872 39972 ft 430 kts 214°
2026-05-06 18:30 57.54335 15.05012 39975 ft 431 kts 214°
2026-05-06 18:31 57.49231 14.99126 39958 ft 431 kts 214°
2026-05-06 18:31 57.44118 14.93249 39963 ft 431 kts 214°
2026-05-06 18:32 57.39015 14.87404 39961 ft 431 kts 214°
2026-05-06 18:32 57.33931 14.81600 39962 ft 431 kts 214°
2026-05-06 18:33 57.28819 14.75781 39961 ft 432 kts 214°
2026-05-06 18:33 57.23694 14.69968 39957 ft 432 kts 214°
2026-05-06 18:34 57.18555 14.64159 39956 ft 432 kts 213°
2026-05-06 18:34 57.13450 14.58408 39961 ft 432 kts 213°
2026-05-06 18:35 57.08313 14.52640 39953 ft 432 kts 213°
2026-05-06 18:35 57.03174 14.46889 39953 ft 432 kts 213°
2026-05-06 18:36 56.98896 14.42116 39962 ft 433 kts 213°
2026-05-06 18:36 56.93745 14.36386 39965 ft 432 kts 213°
2026-05-06 18:37 56.88591 14.30671 39966 ft 433 kts 213°
2026-05-06 18:37 56.83441 14.24979 39945 ft 433 kts 213°
2026-05-06 18:38 56.78314 14.19330 39966 ft 433 kts 213°
2026-05-06 18:38 56.73149 14.13660 39969 ft 433 kts 213°
2026-05-06 18:39 56.67969 14.07990 39981 ft 433 kts 213°
2026-05-06 18:40 56.60238 13.99563 39968 ft 433 kts 213°
2026-05-06 18:40 56.55068 13.93950 39971 ft 433 kts 213°
2026-05-06 18:41 56.49886 13.88341 39971 ft 434 kts 213°
2026-05-06 18:41 56.44701 13.82748 39971 ft 434 kts 213°
2026-05-06 18:42 56.39515 13.77172 39975 ft 434 kts 213°
2026-05-06 18:42 56.34326 13.71610 39958 ft 433 kts 213°
2026-05-06 18:43 56.29168 13.66099 39979 ft 434 kts 213°
2026-05-06 18:43 56.23964 13.60557 39972 ft 434 kts 213°
2026-05-06 18:44 56.18761 13.55033 39970 ft 434 kts 212°
2026-05-06 18:44 56.13584 13.49554 39970 ft 434 kts 212°
2026-05-06 18:45 56.08374 13.44058 39962 ft 434 kts 212°
2026-05-06 18:45 56.03150 13.38565 39967 ft 435 kts 212°
2026-05-06 18:46 55.97937 13.33103 39967 ft 435 kts 212°
2026-05-06 18:46 55.92711 13.27643 39969 ft 435 kts 212°
2026-05-06 18:47 55.87512 13.22229 39971 ft 435 kts 212°
2026-05-06 18:47 55.82288 13.16804 39974 ft 435 kts 212°
2026-05-06 18:48 55.77056 13.11388 39972 ft 434 kts 212°
2026-05-06 18:48 55.71833 13.05999 39968 ft 434 kts 212°
2026-05-06 18:49 55.66632 13.00648 39969 ft 434 kts 212°
2026-05-06 18:49 55.61391 12.95274 39957 ft 434 kts 212°
2026-05-06 18:50 55.56134 12.89900 39970 ft 435 kts 212°
2026-05-06 18:50 55.50916 12.84583 39970 ft 436 kts 212°
2026-05-06 18:51 55.45657 12.79240 39971 ft 436 kts 212°
2026-05-06 18:51 55.40385 12.73900 39972 ft 436 kts 212°
2026-05-06 18:52 55.35160 12.68624 39973 ft 436 kts 212°
2026-05-06 18:52 55.29893 12.63321 39968 ft 436 kts 212°
2026-05-06 18:53 55.24644 12.58054 39970 ft 436 kts 212°
2026-05-06 18:53 55.19380 12.52787 39962 ft 436 kts 212°
2026-05-06 18:54 55.14106 12.47528 39950 ft 436 kts 211°
2026-05-06 18:54 55.08834 12.42285 39963 ft 436 kts 211°
2026-05-06 18:55 55.03555 12.37053 39957 ft 436 kts 211°
2026-05-06 18:55 54.98305 12.31865 39956 ft 436 kts 211°
2026-05-06 18:56 54.93018 12.26656 39955 ft 436 kts 211°
2026-05-06 18:56 54.87732 12.21465 39949 ft 436 kts 211°
2026-05-06 18:57 54.82444 12.16288 39950 ft 436 kts 211°
2026-05-06 18:57 54.77192 12.11161 39950 ft 436 kts 211°
2026-05-06 18:58 54.71905 12.06014 39939 ft 436 kts 211°
2026-05-06 18:58 54.66612 12.00878 39917 ft 436 kts 211°
2026-05-06 18:59 54.61319 11.95758 39938 ft 435 kts 211°
2026-05-06 18:59 54.56035 11.90661 39925 ft 435 kts 211°
2026-05-06 19:00 54.50771 11.85599 39936 ft 435 kts 211°
2026-05-06 19:00 54.45457 11.80509 39928 ft 436 kts 210°
2026-05-06 19:01 54.40055 11.75753 39925 ft 436 kts 208°
2026-05-06 19:01 54.34612 11.71236 39919 ft 436 kts 207°
2026-05-06 19:02 54.29133 11.66707 39921 ft 436 kts 207°
2026-05-06 19:02 54.23671 11.62165 39914 ft 436 kts 207°
2026-05-06 19:03 54.18242 11.57643 39916 ft 436 kts 207°
2026-05-06 19:03 54.12772 11.53096 39904 ft 437 kts 207°
2026-05-06 19:04 54.07293 11.48557 39907 ft 437 kts 207°
2026-05-06 19:04 54.01817 11.44036 39906 ft 437 kts 207°
2026-05-06 19:05 53.96358 11.39543 39902 ft 437 kts 207°
2026-05-06 19:05 53.90871 11.35039 39896 ft 437 kts 207°
2026-05-06 19:06 53.85417 11.30575 39899 ft 438 kts 207°
2026-05-06 19:06 53.79924 11.26092 39891 ft 438 kts 207°
2026-05-06 19:07 53.74437 11.21626 39896 ft 437 kts 207°
2026-05-06 19:07 53.68942 11.17167 39890 ft 438 kts 207°
2026-05-06 19:08 53.63446 11.12721 39895 ft 438 kts 207°
2026-05-06 19:08 53.57977 11.08309 39889 ft 438 kts 207°
2026-05-06 19:09 53.52474 11.03883 39885 ft 438 kts 207°
2026-05-06 19:09 53.46962 10.99462 39872 ft 438 kts 207°
2026-05-06 19:10 53.41443 10.95047 39881 ft 439 kts 207°
2026-05-06 19:10 53.35959 10.90674 39880 ft 439 kts 207°
2026-05-06 19:11 53.30435 10.86280 39881 ft 439 kts 207°
2026-05-06 19:11 53.24914 10.81902 39870 ft 439 kts 207°
2026-05-06 19:12 53.19384 10.77529 39883 ft 439 kts 207°
2026-05-06 19:12 53.13885 10.73194 39875 ft 440 kts 207°
2026-05-06 19:13 53.08351 10.68843 39875 ft 440 kts 207°
2026-05-06 19:13 53.02801 10.64494 39870 ft 440 kts 207°
2026-05-06 19:14 52.97253 10.60157 39867 ft 440 kts 207°
2026-05-06 19:14 52.91743 10.55863 39870 ft 440 kts 206°
2026-05-06 19:15 52.86191 10.51548 39868 ft 440 kts 206°
2026-05-06 19:15 52.80638 10.47245 39867 ft 440 kts 206°
2026-05-06 19:16 52.75122 10.42982 39858 ft 440 kts 206°
2026-05-06 19:16 52.69566 10.38700 39853 ft 440 kts 206°
2026-05-06 19:17 52.64017 10.34436 39851 ft 440 kts 206°
2026-05-06 19:17 52.58457 10.30176 39833 ft 440 kts 206°
2026-05-06 19:18 52.52904 10.25933 39831 ft 440 kts 206°
2026-05-06 19:18 52.47349 10.21700 39833 ft 440 kts 206°
2026-05-06 19:19 52.41796 10.17480 39830 ft 440 kts 206°
2026-05-06 19:19 52.36265 10.13289 39831 ft 440 kts 206°
2026-05-06 19:20 52.30706 10.09088 39825 ft 440 kts 206°
2026-05-06 19:20 52.25154 10.04904 39835 ft 439 kts 206°
2026-05-06 19:21 52.19605 10.00735 39837 ft 439 kts 206°
2026-05-06 19:21 52.14083 9.96597 39831 ft 439 kts 206°
2026-05-06 19:22 52.08534 9.92450 39831 ft 439 kts 206°
2026-05-06 19:22 52.02967 9.88301 39827 ft 439 kts 206°
2026-05-06 19:23 51.97403 9.84166 39825 ft 439 kts 206°
2026-05-06 19:23 51.91867 9.80063 39824 ft 439 kts 206°
2026-05-06 19:24 51.86290 9.75941 39833 ft 440 kts 206°
2026-05-06 19:24 51.80741 9.71851 39830 ft 442 kts 206°
2026-05-06 19:25 51.75130 9.67727 39827 ft 442 kts 206°
2026-05-06 19:25 51.70474 9.64312 39831 ft 442 kts 206°
2026-05-06 19:26 51.63961 9.59548 39824 ft 442 kts 206°
2026-05-06 19:26 51.59304 9.56153 39828 ft 442 kts 205°
2026-05-06 19:27 51.53701 9.52076 39826 ft 441 kts 205°
2026-05-06 19:27 51.48105 9.48015 39829 ft 442 kts 205°
2026-05-06 19:28 51.42458 9.44090 39823 ft 442 kts 200°
2026-05-06 19:28 51.36462 9.41738 39830 ft 444 kts 193°
2026-05-06 19:29 51.30369 9.40001 39823 ft 445 kts 191°
2026-05-06 19:29 51.24298 9.38398 39826 ft 445 kts 191°
2026-05-06 19:30 51.18187 9.36784 39821 ft 445 kts 191°
2026-05-06 19:30 51.12074 9.35151 39835 ft 445 kts 191°
2026-05-06 19:31 51.05986 9.33518 39830 ft 445 kts 191°
2026-05-06 19:31 50.96814 9.31064 39840 ft 445 kts 191°
2026-05-06 19:32 50.90695 9.29433 39819 ft 445 kts 191°
2026-05-06 19:32 50.84609 9.27816 39828 ft 445 kts 191°
2026-05-06 19:33 50.78499 9.26197 39825 ft 445 kts 191°
2026-05-06 19:33 50.72375 9.24578 39814 ft 445 kts 191°
2026-05-06 19:34 50.66263 9.22966 39823 ft 445 kts 191°
2026-05-06 19:34 50.60155 9.21360 39810 ft 445 kts 191°
2026-05-06 19:35 50.54076 9.19767 39822 ft 445 kts 191°
2026-05-06 19:35 50.47958 9.18167 39814 ft 445 kts 191°
2026-05-06 19:36 50.41837 9.16571 39814 ft 445 kts 191°
2026-05-06 19:36 50.35771 9.14993 39523 ft 444 kts 191°
2026-05-06 19:37 50.32726 9.14202 39294 ft 442 kts 191°
2026-05-06 19:37 50.29692 9.13416 39062 ft 440 kts 191°
2026-05-06 19:37 50.26675 9.12635 38833 ft 438 kts 191°
2026-05-06 19:37 50.23671 9.11859 38622 ft 437 kts 191°
2026-05-06 19:38 50.20662 9.11082 38389 ft 437 kts 191°
2026-05-06 19:38 50.17659 9.10307 38104 ft 437 kts 191°
2026-05-06 19:38 50.14700 9.09544 37837 ft 436 kts 191°
2026-05-06 19:38 50.11701 9.08772 37567 ft 436 kts 191°
2026-05-06 19:39 50.08714 9.08004 37308 ft 435 kts 191°
2026-05-06 19:39 50.05718 9.07235 37037 ft 434 kts 191°
2026-05-06 19:39 50.02766 9.06478 36780 ft 434 kts 191°
2026-05-06 19:39 49.99791 9.05716 36506 ft 433 kts 190°
2026-05-06 19:40 49.96809 9.04953 35970 ft 434 kts 190°
2026-05-06 19:40 49.93827 9.04192 35365 ft 434 kts 190°
2026-05-06 19:40 49.90846 9.03432 34754 ft 434 kts 190°
2026-05-06 19:40 49.87868 9.02673 34166 ft 433 kts 190°
2026-05-06 19:41 49.84894 9.01916 33611 ft 431 kts 190°
2026-05-06 19:41 49.81925 9.01161 33217 ft 431 kts 189°
2026-05-06 19:41 49.78970 9.00411 33050 ft 429 kts 189°
2026-05-06 19:41 49.76018 8.99662 32919 ft 430 kts 189°
2026-05-06 19:42 49.70129 8.98172 32834 ft 431 kts 189°
2026-05-06 19:42 49.64210 8.96679 32837 ft 430 kts 189°
2026-05-06 19:43 49.58279 8.95186 32843 ft 431 kts 189°
2026-05-06 19:43 49.52382 8.93706 32834 ft 432 kts 189°
2026-05-06 19:44 49.46448 8.92217 32837 ft 432 kts 189°
2026-05-06 19:44 49.40505 8.90732 32837 ft 432 kts 189°
2026-05-06 19:45 49.34580 8.89258 32840 ft 435 kts 189°
2026-05-06 19:45 49.28596 8.87771 32839 ft 435 kts 189°
2026-05-06 19:46 49.22610 8.86286 32837 ft 435 kts 189°
2026-05-06 19:46 49.16628 8.84807 32841 ft 436 kts 189°
2026-05-06 19:47 49.10668 8.83336 32837 ft 436 kts 189°
2026-05-06 19:47 49.04671 8.81860 32845 ft 436 kts 189°
2026-05-06 19:48 48.98673 8.80386 32848 ft 436 kts 189°
2026-05-06 19:48 48.92670 8.78914 32852 ft 436 kts 189°
2026-05-06 19:49 48.86685 8.77426 32856 ft 435 kts 190°
2026-05-06 19:49 48.80734 8.75838 32858 ft 433 kts 191°
2026-05-06 19:50 48.74829 8.74236 32875 ft 434 kts 191°
2026-05-06 19:50 48.71847 8.73431 32664 ft 434 kts 191°
2026-05-06 19:50 48.68872 8.72632 32086 ft 435 kts 191°
2026-05-06 19:51 48.65834 8.71818 31445 ft 446 kts 191°
2026-05-06 19:51 48.62786 8.71005 30815 ft 443 kts 190°
2026-05-06 19:51 48.59797 8.70210 30205 ft 440 kts 190°
2026-05-06 19:51 48.56791 8.69412 29541 ft 438 kts 190°
2026-05-06 19:52 48.53793 8.68617 28833 ft 435 kts 190°
2026-05-06 19:52 48.50817 8.67828 28140 ft 432 kts 190°
2026-05-06 19:52 48.47864 8.67046 27464 ft 429 kts 190°
2026-05-06 19:52 48.44931 8.66271 26797 ft 427 kts 190°
2026-05-06 19:53 48.42005 8.65498 26145 ft 424 kts 190°
2026-05-06 19:53 48.39104 8.64731 25518 ft 422 kts 190°
2026-05-06 19:53 48.36221 8.63930 24901 ft 420 kts 191°
2026-05-06 19:53 48.33402 8.63098 24298 ft 417 kts 191°
2026-05-06 19:54 48.30558 8.62234 23709 ft 415 kts 192°
2026-05-06 19:54 48.27729 8.61367 23058 ft 413 kts 192°
2026-05-06 19:54 48.24911 8.60505 22366 ft 411 kts 192°
2026-05-06 19:54 48.22114 8.59653 21700 ft 408 kts 192°
2026-05-06 19:55 48.19380 8.58825 21045 ft 404 kts 192°
2026-05-06 19:55 48.16630 8.57997 20409 ft 401 kts 192°
2026-05-06 19:55 48.13910 8.57186 19785 ft 397 kts 192°
2026-05-06 19:55 48.11202 8.56380 19169 ft 394 kts 192°
2026-05-06 19:56 48.08523 8.55583 18560 ft 390 kts 192°
2026-05-06 19:56 48.05878 8.54796 17936 ft 386 kts 192°
2026-05-06 19:56 48.03257 8.54018 17255 ft 382 kts 192°
2026-05-06 19:56 48.00664 8.53248 16599 ft 378 kts 192°
2026-05-06 19:57 47.98091 8.52494 15963 ft 374 kts 191°
2026-05-06 19:57 47.95504 8.52249 15329 ft 373 kts 176°
2026-05-06 19:57 47.93030 8.53269 14770 ft 365 kts 156°
2026-05-06 19:57 47.90957 8.55313 14291 ft 351 kts 145°
2026-05-06 19:58 47.89095 8.57567 13808 ft 338 kts 143°
2026-05-06 19:58 47.87343 8.59743 13269 ft 326 kts 144°
2026-05-06 19:58 47.85618 8.61874 12757 ft 316 kts 144°
2026-05-06 19:58 47.83946 8.63926 12311 ft 307 kts 144°
2026-05-06 19:59 47.82369 8.66079 11902 ft 306 kts 139°
2026-05-06 19:59 47.80854 8.68302 11527 ft 303 kts 139°
2026-05-06 19:59 47.79371 8.70514 11155 ft 301 kts 138°
2026-05-06 19:59 47.77905 8.72721 10848 ft 298 kts 138°
2026-05-06 20:00 47.76470 8.74891 10634 ft 298 kts 137°
2026-05-06 20:00 47.75002 8.77115 10377 ft 297 kts 137°
2026-05-06 20:00 47.73575 8.79278 10124 ft 297 kts 137°
2026-05-06 20:00 47.72132 8.81467 9892 ft 296 kts 137°
2026-05-06 20:01 47.70697 8.83643 9626 ft 291 kts 137°
2026-05-06 20:01 47.69297 8.85767 9356 ft 285 kts 138°
2026-05-06 20:01 47.67922 8.87851 9091 ft 280 kts 139°
2026-05-06 20:01 47.66571 8.89897 8830 ft 275 kts 139°
2026-05-06 20:02 47.65253 8.91893 8666 ft 266 kts 139°
2026-05-06 20:02 47.63976 8.93825 8329 ft 260 kts 139°
2026-05-06 20:02 47.62712 8.95732 8036 ft 259 kts 140°
2026-05-06 20:02 47.61469 8.97603 7752 ft 257 kts 140°
2026-05-06 20:03 47.60210 8.99465 7473 ft 254 kts 143°
2026-05-06 20:03 47.58774 9.00918 7176 ft 246 kts 160°
2026-05-06 20:03 47.57182 9.01645 6959 ft 233 kts 182°
2026-05-06 20:03 47.55665 9.01251 6774 ft 216 kts 210°
2026-05-06 20:04 47.54422 9.00069 6534 ft 210 kts 220°
2026-05-06 20:04 47.53282 8.98718 6295 ft 209 kts 223°
2026-05-06 20:04 47.52167 8.97341 6029 ft 208 kts 223°
2026-05-06 20:04 47.51058 8.95968 5747 ft 208 kts 223°
2026-05-06 20:05 47.49952 8.94601 5513 ft 205 kts 223°
2026-05-06 20:05 47.48885 8.93287 5361 ft 199 kts 223°
2026-05-06 20:05 47.47825 8.91985 5149 ft 197 kts 223°
2026-05-06 20:05 47.46784 8.90706 5039 ft 189 kts 223°
2026-05-06 20:06 47.45806 8.89512 4994 ft 177 kts 223°
2026-05-06 20:06 47.44868 8.88356 4972 ft 175 kts 223°
2026-05-06 20:06 47.44075 8.87013 4987 ft 172 kts 249°
2026-05-06 20:06 47.43795 8.85314 4992 ft 173 kts 264°
2026-05-06 20:07 47.43793 8.83533 4994 ft 174 kts 271°
2026-05-06 20:07 47.43901 8.81756 5001 ft 174 kts 273°
2026-05-06 20:07 47.44028 8.79979 4902 ft 173 kts 274°
2026-05-06 20:07 47.44151 8.78205 4631 ft 172 kts 274°
2026-05-06 20:08 47.44277 8.76431 4380 ft 173 kts 274°
2026-05-06 20:08 47.44402 8.74670 4091 ft 172 kts 274°
2026-05-06 20:08 47.44524 8.72957 3833 ft 165 kts 274°
2026-05-06 20:08 47.44641 8.71322 3592 ft 154 kts 274°
2026-05-06 20:09 47.44750 8.69791 3370 ft 143 kts 274°
2026-05-06 20:09 47.44850 8.68384 3170 ft 134 kts 274°
2026-05-06 20:09 47.44949 8.67017 2967 ft 133 kts 274°
2026-05-06 20:09 47.45054 8.65653 2779 ft 133 kts 274°
2026-05-06 20:10 47.45163 8.64294 2579 ft 133 kts 275°
2026-05-06 20:10 47.45262 8.62955 2382 ft 132 kts 273°
2026-05-06 20:10 47.45338 8.61605 2196 ft 132 kts 274°
2026-05-06 20:10 47.45434 8.60258 1998 ft 131 kts 275°
2026-05-06 20:11 47.45533 8.58919 1743 ft 130 kts 273°
2026-05-06 20:11 47.45626 8.57596 1565 ft 129 kts 274°
2026-05-06 20:11 47.45716 8.56295 1427 ft 122 kts 275°
2026-05-06 20:11 47.45788 8.55234 1408 ft 77 kts 276°
2026-05-06 20:12 47.45822 8.54760 1404 ft 24 kts 276°
2026-05-06 20:12 47.45817 8.54522 1403 ft 23 kts 259°
2026-05-06 20:12 47.45783 8.54358 1402 ft 14 kts 249°
2026-05-06 20:12 47.45728 8.54235 1386 ft 16 kts 224°
2026-05-06 20:13 47.45631 8.54243 1385 ft 15 kts 133°
2026-05-06 20:13 47.45589 8.54385 1403 ft 15 kts 109°
2026-05-06 20:13 47.45566 8.54485 1398 ft 16 kts 108°
2026-05-06 20:13 47.45531 8.54643 1404 ft 16 kts 108°
2026-05-06 20:14 47.45495 8.54811 1406 ft 18 kts 108°
2026-05-06 20:14 47.45442 8.55048 1410 ft 18 kts 109°
2026-05-06 20:14 47.45414 8.55166 1409 ft 18 kts 110°
2026-05-06 20:14 47.45362 8.55334 1407 ft 18 kts 119°
2026-05-06 20:15 47.45300 8.55499 1417 ft 17 kts 119°
2026-05-06 20:15 47.45270 8.55662 1412 ft 17 kts 96°
2026-05-06 20:15 47.45257 8.55844 1417 ft 9 kts 95°
2026-05-06 20:15 47.45253 8.55882 1415 ft 2 kts 117°
2026-05-06 20:16 47.45230 8.55899 1416 ft 6 kts 161°
2026-05-06 20:16 47.45189 8.55901 1417 ft 6 kts 183°
2026-05-06 20:16 47.45168 8.55898 1416 ft 0 kts 185°